SHT4H EGLL-EGAC

Flight info

Callsign SHT4H
Flight time 0h 54m
Altitude 36000
Route ULTIB T420 TNT UL28 RODOL UM65 TENSO L603 BELOX DCT REMSI DCT NINEB M148 MAGEE
Aircraft A319/M-SDE3FGHIRWY/LB1

Departure

Time 2026-05-09 07:01
Airport London Heathrow Airport (EGLL)

Arrival

Time 2026-05-09 07:56
Airport George Best Belfast City Airport (EGAC)
Time Latitude Longitude Altitude Speed Heading
2026-05-09 06:05 51.46929 -0.48650 87 ft 0 kts 360°
2026-05-09 06:49 51.46927 -0.48650 91 ft 1 kts 359°
2026-05-09 06:49 51.46910 -0.48649 91 ft 3 kts 351°
2026-05-09 06:49 51.46891 -0.48641 89 ft 3 kts 329°
2026-05-09 06:50 51.46878 -0.48622 90 ft 2 kts 280°
2026-05-09 06:50 51.46877 -0.48608 89 ft 1 kts 270°
2026-05-09 06:50 51.46877 -0.48606 88 ft 0 kts 270°
2026-05-09 06:55 51.46877 -0.48608 87 ft 0 kts 270°
2026-05-09 06:56 51.46877 -0.48623 87 ft 3 kts 271°
2026-05-09 06:56 51.46877 -0.48681 87 ft 7 kts 270°
2026-05-09 06:56 51.46852 -0.48750 88 ft 9 kts 197°
2026-05-09 06:56 51.46781 -0.48751 87 ft 12 kts 180°
2026-05-09 06:57 51.46697 -0.48751 88 ft 12 kts 180°
2026-05-09 06:57 51.46661 -0.48751 88 ft 2 kts 180°
2026-05-09 06:57 51.46635 -0.48754 87 ft 5 kts 187°
2026-05-09 06:57 51.46597 -0.48772 90 ft 1 kts 201°
2026-05-09 06:58 51.46593 -0.48775 89 ft 2 kts 201°
2026-05-09 06:59 51.46571 -0.48788 89 ft 5 kts 199°
2026-05-09 06:59 51.46523 -0.48792 87 ft 9 kts 162°
2026-05-09 06:59 51.46475 -0.48725 90 ft 9 kts 110°
2026-05-09 06:59 51.46477 -0.48622 88 ft 0 kts 90°
2026-05-09 07:00 51.46477 -0.48621 88 ft 0 kts 90°
2026-05-09 07:00 51.46477 -0.48620 88 ft 1 kts 90°
2026-05-09 07:00 51.46476 -0.48412 89 ft 47 kts 90°
2026-05-09 07:00 51.46480 -0.47562 86 ft 105 kts 89°
2026-05-09 07:01 51.46489 -0.46098 88 ft 157 kts 89°
2026-05-09 07:01 51.46493 -0.44289 632 ft 159 kts 87°
2026-05-09 07:01 51.46521 -0.42521 1379 ft 162 kts 88°
2026-05-09 07:01 51.46838 -0.40688 1657 ft 185 kts 60°
2026-05-09 07:02 51.47762 -0.39116 2000 ft 209 kts 47°
2026-05-09 07:02 51.48789 -0.37244 2364 ft 237 kts 52°
2026-05-09 07:02 51.49860 -0.35118 3145 ft 250 kts 52°
2026-05-09 07:02 51.50958 -0.32909 4180 ft 255 kts 52°
2026-05-09 07:03 51.52054 -0.30636 5234 ft 259 kts 58°
2026-05-09 07:03 51.52765 -0.27960 6195 ft 264 kts 73°
2026-05-09 07:03 51.53485 -0.25218 7117 ft 272 kts 57°
2026-05-09 07:03 51.54876 -0.23130 7961 ft 280 kts 29°
2026-05-09 07:04 51.56769 -0.22333 8841 ft 286 kts 358°
2026-05-09 07:04 51.58723 -0.22984 9773 ft 289 kts 341°
2026-05-09 07:04 51.60694 -0.23814 10538 ft 302 kts 343°
2026-05-09 07:04 51.62739 -0.24965 10989 ft 319 kts 333°
2026-05-09 07:05 51.64710 -0.26665 11724 ft 324 kts 329°
2026-05-09 07:05 51.66678 -0.28488 12562 ft 328 kts 328°
2026-05-09 07:05 51.68650 -0.30372 13402 ft 331 kts 328°
2026-05-09 07:05 51.70638 -0.32298 14190 ft 335 kts 328°
2026-05-09 07:06 51.72645 -0.34251 14904 ft 339 kts 328°
2026-05-09 07:06 51.74679 -0.36231 15589 ft 343 kts 328°
2026-05-09 07:06 51.76712 -0.38210 16264 ft 348 kts 328°
2026-05-09 07:06 51.78803 -0.40240 16908 ft 352 kts 328°
2026-05-09 07:07 51.80921 -0.42296 17569 ft 357 kts 328°
2026-05-09 07:07 51.83062 -0.44371 18236 ft 361 kts 328°
2026-05-09 07:07 51.85228 -0.46469 18837 ft 365 kts 328°
2026-05-09 07:07 51.87428 -0.48601 19390 ft 370 kts 328°
2026-05-09 07:08 51.89646 -0.50757 19961 ft 374 kts 327°
2026-05-09 07:08 51.91886 -0.52944 20521 ft 379 kts 327°
2026-05-09 07:08 51.94157 -0.55164 21074 ft 383 kts 327°
2026-05-09 07:08 51.96450 -0.57407 21650 ft 388 kts 327°
2026-05-09 07:09 51.98772 -0.59676 22190 ft 392 kts 326°
2026-05-09 07:09 52.01096 -0.61949 22721 ft 396 kts 326°
2026-05-09 07:09 52.03496 -0.64298 23261 ft 400 kts 326°
2026-05-09 07:09 52.05892 -0.66644 23778 ft 404 kts 326°
2026-05-09 07:10 52.08282 -0.68992 24226 ft 408 kts 326°
2026-05-09 07:10 52.10719 -0.71394 24680 ft 412 kts 326°
2026-05-09 07:10 52.13178 -0.73821 25126 ft 415 kts 326°
2026-05-09 07:10 52.15660 -0.76266 25575 ft 418 kts 326°
2026-05-09 07:11 52.18159 -0.78726 26009 ft 422 kts 326°
2026-05-09 07:11 52.20679 -0.81213 26443 ft 425 kts 326°
2026-05-09 07:11 52.23213 -0.83721 26870 ft 428 kts 326°
2026-05-09 07:11 52.25770 -0.86259 27294 ft 431 kts 325°
2026-05-09 07:12 52.28342 -0.88820 27715 ft 434 kts 325°
2026-05-09 07:12 52.30927 -0.91394 28135 ft 437 kts 325°
2026-05-09 07:12 52.33534 -0.93990 28551 ft 441 kts 325°
2026-05-09 07:12 52.36166 -0.96610 28961 ft 444 kts 325°
2026-05-09 07:13 52.38814 -0.99249 29373 ft 447 kts 325°
2026-05-09 07:13 52.41484 -1.01912 29784 ft 450 kts 325°
2026-05-09 07:13 52.44168 -1.04596 30159 ft 454 kts 325°
2026-05-09 07:13 52.46868 -1.07305 30495 ft 457 kts 325°
2026-05-09 07:14 52.49586 -1.10040 30844 ft 459 kts 325°
2026-05-09 07:14 52.52312 -1.12789 31182 ft 461 kts 325°
2026-05-09 07:14 52.55047 -1.15546 31519 ft 463 kts 325°
2026-05-09 07:14 52.57793 -1.18314 31933 ft 463 kts 325°
2026-05-09 07:15 52.60535 -1.21077 32418 ft 461 kts 325°
2026-05-09 07:15 52.63263 -1.23826 32894 ft 459 kts 325°
2026-05-09 07:15 52.65982 -1.26573 33389 ft 458 kts 325°
2026-05-09 07:15 52.68695 -1.29320 33882 ft 457 kts 325°
2026-05-09 07:16 52.71357 -1.32028 34340 ft 455 kts 324°
2026-05-09 07:16 52.74049 -1.34775 34813 ft 454 kts 324°
2026-05-09 07:16 52.76728 -1.37510 35237 ft 452 kts 324°
2026-05-09 07:16 52.79399 -1.40236 35642 ft 450 kts 324°
2026-05-09 07:17 52.82056 -1.42953 36030 ft 449 kts 324°
2026-05-09 07:17 52.84709 -1.45669 36147 ft 446 kts 324°
2026-05-09 07:17 52.89947 -1.51040 36166 ft 441 kts 324°
2026-05-09 07:18 52.95156 -1.56393 36167 ft 440 kts 324°
2026-05-09 07:18 53.00327 -1.61726 36171 ft 440 kts 324°
2026-05-09 07:19 53.05521 -1.67113 36169 ft 440 kts 324°
2026-05-09 07:19 53.10713 -1.72502 36168 ft 439 kts 324°
2026-05-09 07:20 53.15897 -1.77911 36170 ft 439 kts 324°
2026-05-09 07:20 53.21065 -1.83323 36172 ft 439 kts 324°
2026-05-09 07:21 53.26267 -1.88680 36177 ft 440 kts 326°
2026-05-09 07:21 53.31576 -1.93701 36175 ft 440 kts 327°
2026-05-09 07:22 53.36946 -1.98653 36168 ft 440 kts 327°
2026-05-09 07:22 53.42273 -2.03667 36174 ft 439 kts 326°
2026-05-09 07:23 53.47542 -2.08729 36173 ft 439 kts 326°
2026-05-09 07:23 53.52833 -2.13822 36177 ft 438 kts 326°
2026-05-09 07:24 53.57837 -2.19529 36176 ft 430 kts 311°
2026-05-09 07:24 53.61423 -2.27329 36168 ft 417 kts 293°
2026-05-09 07:25 53.63635 -2.36272 36167 ft 412 kts 286°
2026-05-09 07:25 53.65970 -2.45122 36158 ft 417 kts 293°
2026-05-09 07:26 53.68752 -2.53701 36161 ft 417 kts 294°
2026-05-09 07:26 53.71550 -2.62288 36162 ft 417 kts 294°
2026-05-09 07:27 53.73853 -2.69438 36167 ft 417 kts 293°
2026-05-09 07:27 53.76614 -2.78066 36167 ft 417 kts 293°
2026-05-09 07:28 53.79816 -2.88090 36170 ft 416 kts 293°
2026-05-09 07:28 53.82113 -2.95306 36167 ft 416 kts 293°
2026-05-09 07:29 53.84824 -3.03882 36195 ft 416 kts 293°
2026-05-09 07:29 53.87553 -3.12534 36195 ft 416 kts 293°
2026-05-09 07:30 53.90278 -3.21180 36192 ft 415 kts 293°
2026-05-09 07:30 53.92989 -3.29844 35711 ft 417 kts 292°
2026-05-09 07:31 53.94346 -3.34187 35263 ft 416 kts 292°
2026-05-09 07:31 53.95696 -3.38510 34845 ft 413 kts 292°
2026-05-09 07:31 53.97040 -3.42814 34427 ft 411 kts 291°
2026-05-09 07:31 53.98371 -3.47086 33995 ft 408 kts 291°
2026-05-09 07:32 53.99689 -3.51332 33530 ft 405 kts 291°
2026-05-09 07:32 54.00995 -3.55547 33080 ft 402 kts 291°
2026-05-09 07:32 54.02291 -3.59736 32634 ft 399 kts 291°
2026-05-09 07:32 54.03573 -3.63900 32198 ft 396 kts 291°
2026-05-09 07:33 54.04847 -3.68033 31768 ft 393 kts 291°
2026-05-09 07:33 54.07371 -3.76229 30940 ft 388 kts 290°
2026-05-09 07:33 54.08614 -3.80291 30546 ft 385 kts 290°
2026-05-09 07:34 54.09848 -3.84328 30091 ft 382 kts 290°
2026-05-09 07:34 54.11051 -3.88274 29537 ft 378 kts 290°
2026-05-09 07:34 54.12273 -3.92284 29011 ft 374 kts 290°
2026-05-09 07:34 54.13468 -3.96204 28524 ft 370 kts 291°
2026-05-09 07:35 54.14650 -4.00078 28047 ft 366 kts 291°
2026-05-09 07:35 54.15800 -4.03855 27577 ft 362 kts 291°
2026-05-09 07:35 54.16951 -4.07652 27095 ft 358 kts 291°
2026-05-09 07:35 54.18089 -4.11405 26613 ft 354 kts 291°
2026-05-09 07:36 54.19213 -4.15122 26136 ft 350 kts 291°
2026-05-09 07:36 54.20323 -4.18803 25647 ft 346 kts 291°
2026-05-09 07:36 54.21416 -4.22443 25176 ft 343 kts 291°
2026-05-09 07:36 54.22497 -4.26051 24697 ft 339 kts 291°
2026-05-09 07:37 54.23565 -4.29612 24222 ft 335 kts 291°
2026-05-09 07:37 54.24624 -4.33143 23750 ft 332 kts 291°
2026-05-09 07:37 54.25670 -4.36641 23179 ft 329 kts 292°
2026-05-09 07:37 54.26705 -4.40104 22641 ft 325 kts 292°
2026-05-09 07:38 54.27729 -4.43535 22075 ft 323 kts 292°
2026-05-09 07:38 54.28747 -4.46948 21536 ft 320 kts 292°
2026-05-09 07:38 54.29753 -4.50329 21001 ft 318 kts 292°
2026-05-09 07:38 54.30754 -4.53689 20494 ft 315 kts 292°
2026-05-09 07:39 54.31744 -4.57024 19990 ft 313 kts 293°
2026-05-09 07:39 54.32727 -4.60346 19575 ft 312 kts 293°
2026-05-09 07:39 54.33706 -4.63655 19193 ft 310 kts 293°
2026-05-09 07:39 54.34674 -4.66937 18822 ft 308 kts 293°
2026-05-09 07:40 54.35628 -4.70169 18438 ft 307 kts 293°
2026-05-09 07:40 54.36601 -4.73464 18006 ft 305 kts 293°
2026-05-09 07:40 54.37554 -4.76700 17567 ft 304 kts 293°
2026-05-09 07:40 54.38490 -4.79881 17158 ft 302 kts 294°
2026-05-09 07:41 54.39447 -4.83134 16738 ft 301 kts 294°
2026-05-09 07:41 54.40372 -4.86290 16342 ft 299 kts 294°
2026-05-09 07:41 54.41303 -4.89471 15945 ft 298 kts 294°
2026-05-09 07:41 54.42230 -4.92649 15558 ft 297 kts 294°
2026-05-09 07:42 54.43152 -4.95808 15180 ft 295 kts 294°
2026-05-09 07:42 54.44070 -4.98956 14820 ft 294 kts 294°
2026-05-09 07:42 54.44981 -5.02080 14461 ft 292 kts 294°
2026-05-09 07:42 54.45888 -5.05196 14112 ft 291 kts 294°
2026-05-09 07:43 54.46786 -5.08291 13729 ft 289 kts 294°
2026-05-09 07:43 54.47681 -5.11380 13456 ft 288 kts 294°
2026-05-09 07:43 54.48568 -5.14447 13215 ft 283 kts 294°
2026-05-09 07:43 54.49437 -5.17454 12924 ft 279 kts 294°
2026-05-09 07:44 54.50178 -5.20506 12610 ft 274 kts 283°
2026-05-09 07:44 54.50468 -5.23714 12257 ft 270 kts 270°
2026-05-09 07:44 54.50311 -5.26919 11904 ft 268 kts 260°
2026-05-09 07:44 54.50026 -5.30093 11552 ft 268 kts 261°
2026-05-09 07:45 54.49751 -5.33223 11207 ft 267 kts 261°
2026-05-09 07:45 54.49476 -5.36383 10858 ft 267 kts 261°
2026-05-09 07:45 54.49200 -5.39539 10510 ft 267 kts 261°
2026-05-09 07:45 54.48925 -5.42694 10159 ft 267 kts 261°
2026-05-09 07:46 54.48646 -5.45879 9657 ft 272 kts 261°
2026-05-09 07:46 54.48360 -5.49103 9266 ft 272 kts 261°
2026-05-09 07:46 54.48073 -5.52312 8902 ft 271 kts 261°
2026-05-09 07:46 54.47785 -5.55514 8559 ft 270 kts 261°
2026-05-09 07:47 54.47497 -5.58694 8198 ft 269 kts 261°
2026-05-09 07:47 54.47210 -5.61857 7860 ft 267 kts 261°
2026-05-09 07:47 54.46924 -5.65009 7511 ft 266 kts 261°
2026-05-09 07:47 54.46640 -5.68131 7102 ft 263 kts 261°
2026-05-09 07:48 54.46358 -5.71230 6572 ft 262 kts 261°
2026-05-09 07:48 54.46077 -5.74313 6013 ft 260 kts 262°
2026-05-09 07:48 54.45797 -5.77386 5490 ft 258 kts 262°
2026-05-09 07:48 54.45526 -5.80336 5355 ft 241 kts 263°
2026-05-09 07:49 54.45274 -5.83075 5181 ft 224 kts 263°
2026-05-09 07:49 54.44983 -5.85659 4800 ft 219 kts 256°
2026-05-09 07:49 54.44479 -5.88128 4399 ft 218 kts 252°
2026-05-09 07:49 54.43929 -5.90534 4171 ft 214 kts 252°
2026-05-09 07:50 54.43385 -5.92873 3999 ft 208 kts 252°
2026-05-09 07:50 54.43202 -5.95234 3724 ft 197 kts 284°
2026-05-09 07:50 54.43689 -5.97370 3527 ft 192 kts 301°
2026-05-09 07:50 54.44291 -5.99432 3340 ft 193 kts 301°
2026-05-09 07:51 54.44881 -6.01467 3218 ft 192 kts 302°
2026-05-09 07:51 54.45588 -6.03381 3132 ft 186 kts 322°
2026-05-09 07:51 54.46719 -6.04250 3057 ft 179 kts 358°
2026-05-09 07:51 54.47909 -6.03796 2975 ft 176 kts 29°
2026-05-09 07:52 54.48909 -6.02629 2902 ft 171 kts 33°
2026-05-09 07:52 54.49878 -6.01472 2852 ft 169 kts 33°
2026-05-09 07:52 54.50841 -6.00324 2598 ft 165 kts 32°
2026-05-09 07:52 54.51785 -5.99202 2366 ft 163 kts 32°
2026-05-09 07:53 54.52699 -5.98116 2153 ft 156 kts 31°
2026-05-09 07:53 54.53577 -5.97070 1937 ft 151 kts 32°
2026-05-09 07:53 54.54429 -5.96057 1730 ft 146 kts 32°
2026-05-09 07:53 54.55257 -5.95072 1525 ft 144 kts 31°
2026-05-09 07:54 54.56066 -5.94107 1336 ft 138 kts 31°
2026-05-09 07:54 54.56815 -5.93214 1136 ft 127 kts 30°
2026-05-09 07:54 54.57530 -5.92361 950 ft 124 kts 31°
2026-05-09 07:54 54.58232 -5.91527 768 ft 122 kts 32°
2026-05-09 07:55 54.58931 -5.90686 587 ft 122 kts 31°
2026-05-09 07:55 54.59632 -5.89850 436 ft 121 kts 32°
2026-05-09 07:55 54.60329 -5.89012 258 ft 121 kts 31°
2026-05-09 07:55 54.61024 -5.88188 89 ft 121 kts 30°
2026-05-09 07:56 54.61685 -5.87397 18 ft 97 kts 32°
2026-05-09 07:56 54.61995 -5.87025 16 ft 23 kts 35°
2026-05-09 07:56 54.62096 -5.86936 17 ft 12 kts 27°
2026-05-09 07:56 54.62080 -5.86925 17 ft 6 kts 217°
2026-05-09 07:57 54.62029 -5.86991 17 ft 12 kts 217°
2026-05-09 07:57 54.61950 -5.87088 17 ft 15 kts 214°
2026-05-09 07:57 54.61864 -5.87179 19 ft 14 kts 195°
2026-05-09 07:57 54.61794 -5.87071 20 ft 13 kts 123°
2026-05-09 07:58 54.61729 -5.86996 21 ft 12 kts 200°
2026-05-09 07:58 54.61653 -5.87077 21 ft 12 kts 219°
2026-05-09 07:58 54.61584 -5.87162 21 ft 9 kts 214°
2026-05-09 07:58 54.61541 -5.87213 21 ft 7 kts 214°
2026-05-09 07:59 54.61509 -5.87226 21 ft 5 kts 163°
2026-05-09 07:59 54.61481 -5.87203 21 ft 0 kts 155°
2026-05-09 07:59 54.61468 -5.87193 23 ft 1 kts 154°
2026-05-09 07:59 54.61460 -5.87187 21 ft 1 kts 155°
2026-05-09 08:00 54.61459 -5.87186 21 ft 0 kts 155°